Location: ???????
(55.8860°N, 38.0932°E)
Time: 12:51:06
(UTC+00:00)

USA 229 - Pass Details

Date: 14 April 2024
Orbit: 890 x 1322 km, 63.4° (Epoch: 18 May)

Event Time Altitude Azimuth Distance (km) Brightness Sun altitude
Rises 01:34:33 0° 301° (WNW) 3,832 6.3 -7.2°
Reaches altitude 10° 01:37:07 10° 305° (NW) 2,936 5.8 -6.9°
Maximum altitude 01:44:08 65° 27° (NNE) 1,279 4.4 -6.0°
Drops below altitude 10° 01:51:54 10° 109° (ESE) 3,234 7.0 -5.0°
Sets 01:54:50 0° 113° (ESE) 4,243 7.5 -4.7°
